Time,TemperatureF,DewpointF,PressureIn,WindDirection,WindDirectionDegrees,WindSpeedMPH,WindSpeedGustMPH,Humidity,HourlyPrecipIn,Conditions,Clouds,dailyrainin,SoftwareType,DateUTC
2013-06-16 00:01:00,69.4,61.1,30.06,East,98,0.0,0.0,75,0.00,,,0.01,Wunderground v.1.15,2013-06-16 04:01:00,
2013-06-16 00:06:00,69.4,61.1,30.06,East,98,0.0,1.0,75,0.00,,,0.01,Wunderground v.1.15,2013-06-16 04:06:00,
2013-06-16 00:11:00,69.4,61.1,30.05,East,98,0.0,0.0,75,0.00,,,0.01,Wunderground v.1.15,2013-06-16 04:11:00,
2013-06-16 00:16:00,69.4,61.1,30.05,East,98,0.0,0.0,75,0.00,,,0.01,Wunderground v.1.15,2013-06-16 04:16:00,
2013-06-16 00:21:00,69.3,61.4,30.05,East,98,0.0,1.0,76,0.00,,,0.01,Wunderground v.1.15,2013-06-16 04:21:00,
2013-06-16 00:26:00,69.3,61.8,30.05,East,98,0.0,1.0,77,0.00,,,0.01,Wunderground v.1.15,2013-06-16 04:26:00,
2013-06-16 00:31:00,69.1,61.6,30.05,East,98,0.0,1.0,77,0.00,,,0.01,Wunderground v.1.15,2013-06-16 04:31:00,
2013-06-16 00:36:00,69.1,61.6,30.05,East,98,0.0,2.0,77,0.00,,,0.01,Wunderground v.1.15,2013-06-16 04:36:00,
2013-06-16 00:41:00,68.9,61.4,30.05,East,98,0.0,0.0,77,0.00,,,0.01,Wunderground v.1.15,2013-06-16 04:41:00,
2013-06-16 00:46:00,68.9,61.4,30.05,East,98,0.0,1.0,77,0.00,,,0.01,Wunderground v.1.15,2013-06-16 04:46:00,
2013-06-16 00:51:00,68.8,61.3,30.05,East,98,0.0,0.0,77,0.00,,,0.01,Wunderground v.1.15,2013-06-16 04:51:00,
2013-06-16 00:56:00,68.6,61.1,30.05,East,98,0.0,1.0,77,0.00,,,0.01,Wunderground v.1.15,2013-06-16 04:56:00,
2013-06-16 01:01:00,68.4,61.3,30.05,East,98,0.0,0.0,78,0.00,,,0.01,Wunderground v.1.15,2013-06-16 05:01:00,
2013-06-16 01:06:00,68.3,61.2,30.05,East,98,0.0,1.0,78,0.00,,,0.01,Wunderground v.1.15,2013-06-16 05:06:00,
2013-06-16 01:11:00,68.1,61.3,30.05,East,98,0.0,2.0,79,0.00,,,0.01,Wunderground v.1.15,2013-06-16 05:11:00,
2013-06-16 01:16:00,67.9,61.1,30.05,East,98,0.0,3.0,79,0.00,,,0.01,Wunderground v.1.15,2013-06-16 05:16:00,
2013-06-16 01:21:00,67.8,61.0,30.05,East,98,0.0,3.0,79,0.00,,,0.01,Wunderground v.1.15,2013-06-16 05:21:00,
2013-06-16 01:26:00,67.6,61.2,30.05,East,98,3.0,3.0,80,0.00,,,0.00,Wunderground v.1.15,2013-06-16 05:26:00,
2013-06-16 01:31:00,67.4,61.0,30.05,East,98,3.0,4.0,80,0.00,,,0.00,Wunderground v.1.15,2013-06-16 05:31:00,
2013-06-16 01:36:00,67.4,60.3,30.05,East,98,3.0,4.0,78,0.00,,,0.00,Wunderground v.1.15,2013-06-16 05:36:00,
2013-06-16 01:41:00,67.6,60.5,30.05,East,99,2.0,4.0,78,0.00,,,0.00,Wunderground v.1.15,2013-06-16 05:41:00,
2013-06-16 01:46:00,67.6,60.1,30.05,East,99,0.0,4.0,77,0.00,,,0.00,Wunderground v.1.15,2013-06-16 05:46:00,
2013-06-16 01:51:00,67.6,60.5,30.05,East,99,0.0,1.0,78,0.00,,,0.00,Wunderground v.1.15,2013-06-16 05:51:00,
2013-06-16 01:56:00,67.4,60.7,30.05,East,99,0.0,3.0,79,0.00,,,0.00,Wunderground v.1.15,2013-06-16 05:56:00,
2013-06-16 02:01:00,67.3,60.6,30.05,East,99,0.0,3.0,79,0.00,,,0.00,Wunderground v.1.15,2013-06-16 06:01:00,
2013-06-16 02:06:00,67.3,60.6,30.05,East,99,0.0,3.0,79,0.00,,,0.00,Wunderground v.1.15,2013-06-16 06:06:00,
2013-06-16 02:11:00,67.3,60.6,30.05,East,99,0.0,0.0,79,0.00,,,0.00,Wunderground v.1.15,2013-06-16 06:11:00,
2013-06-16 02:16:00,67.1,60.4,30.05,East,99,0.0,1.0,79,0.00,,,0.00,Wunderground v.1.15,2013-06-16 06:16:00,
2013-06-16 02:21:00,66.9,60.2,30.05,East,99,3.0,4.0,79,0.00,,,0.00,Wunderground v.1.15,2013-06-16 06:21:00,
2013-06-16 02:26:00,66.9,60.2,30.05,East,99,3.0,4.0,79,0.00,,,0.00,Wunderground v.1.15,2013-06-16 06:26:00,
2013-06-16 02:31:00,66.9,60.2,30.05,East,99,0.0,2.0,79,0.00,,,0.00,Wunderground v.1.15,2013-06-16 06:31:00,
2013-06-16 02:36:00,67.1,60.0,30.05,East,99,0.0,4.0,78,0.00,,,0.00,Wunderground v.1.15,2013-06-16 06:36:00,
2013-06-16 02:41:00,67.3,59.8,30.05,East,99,2.0,3.0,77,0.00,,,0.00,Wunderground v.1.15,2013-06-16 06:41:00,
2013-06-16 02:46:00,67.4,59.9,30.05,East,99,2.0,4.0,77,0.00,,,0.00,Wunderground v.1.15,2013-06-16 06:46:00,
2013-06-16 02:51:00,67.4,59.9,30.05,East,99,0.0,1.0,77,0.00,,,0.00,Wunderground v.1.15,2013-06-16 06:51:00,
2013-06-16 02:56:00,67.4,59.9,30.05,East,99,0.0,1.0,77,0.00,,,0.00,Wunderground v.1.15,2013-06-16 06:56:00,
2013-06-16 03:01:00,67.4,59.9,30.05,East,99,0.0,1.0,77,0.00,,,0.00,Wunderground v.1.15,2013-06-16 07:01:00,
2013-06-16 03:06:00,67.4,59.9,30.05,East,99,0.0,3.0,77,0.00,,,0.00,Wunderground v.1.15,2013-06-16 07:06:00,
2013-06-16 03:11:00,67.3,59.8,30.05,East,99,3.0,4.0,77,0.00,,,0.00,Wunderground v.1.15,2013-06-16 07:11:00,
2013-06-16 03:16:00,67.3,59.5,30.05,East,99,0.0,4.0,76,0.00,,,0.00,Wunderground v.1.15,2013-06-16 07:16:00,
2013-06-16 03:21:00,67.1,59.6,30.05,East,99,0.0,1.0,77,0.00,,,0.00,Wunderground v.1.15,2013-06-16 07:21:00,
2013-06-16 03:26:00,67.1,59.6,30.04,East,99,0.0,1.0,77,0.00,,,0.00,Wunderground v.1.15,2013-06-16 07:26:00,
2013-06-16 03:31:00,66.9,59.5,30.04,East,99,4.0,4.0,77,0.00,,,0.00,Wunderground v.1.15,2013-06-16 07:31:00,
2013-06-16 03:36:00,67.1,59.3,30.04,East,99,0.0,4.0,76,0.00,,,0.00,Wunderground v.1.15,2013-06-16 07:36:00,
2013-06-16 03:41:00,67.3,59.5,30.05,East,99,1.0,3.0,76,0.00,,,0.00,Wunderground v.1.15,2013-06-16 07:41:00,
2013-06-16 03:46:00,67.4,59.2,30.05,East,99,0.0,3.0,75,0.00,,,0.00,Wunderground v.1.15,2013-06-16 07:46:00,
2013-06-16 03:51:00,67.4,59.2,30.05,East,99,0.0,1.0,75,0.00,,,0.00,Wunderground v.1.15,2013-06-16 07:51:00,
2013-06-16 03:56:00,67.4,59.6,30.04,East,99,1.0,3.0,76,0.00,,,0.00,Wunderground v.1.15,2013-06-16 07:56:00,
2013-06-16 04:01:00,67.4,58.8,30.04,East,99,2.0,3.0,74,0.00,,,0.00,Wunderground v.1.15,2013-06-16 08:01:00,
2013-06-16 04:06:00,67.4,59.2,30.04,East,99,0.0,4.0,75,0.00,,,0.00,Wunderground v.1.15,2013-06-16 08:06:00,
2013-06-16 04:11:00,67.4,59.2,30.05,East,99,0.0,1.0,75,0.00,,,0.00,Wunderground v.1.15,2013-06-16 08:11:00,
2013-06-16 04:16:00,67.4,59.2,30.05,East,99,0.0,1.0,75,0.00,,,0.00,Wunderground v.1.15,2013-06-16 08:16:00,
2013-06-16 04:21:00,67.3,59.1,30.05,East,99,2.0,3.0,75,0.00,,,0.00,Wunderground v.1.15,2013-06-16 08:21:00,
2013-06-16 04:26:00,67.3,59.1,30.05,East,99,0.0,3.0,75,0.00,,,0.00,Wunderground v.1.15,2013-06-16 08:26:00,
2013-06-16 04:31:00,67.1,59.3,30.05,East,99,3.0,4.0,76,0.00,,,0.00,Wunderground v.1.15,2013-06-16 08:31:00,
2013-06-16 04:36:00,67.3,59.1,30.05,East,99,3.0,4.0,75,0.00,,,0.00,Wunderground v.1.15,2013-06-16 08:36:00,
2013-06-16 04:41:00,67.3,59.1,30.05,East,99,2.0,3.0,75,0.00,,,0.00,Wunderground v.1.15,2013-06-16 08:41:00,
2013-06-16 04:46:00,67.6,59.0,30.05,East,99,3.0,4.0,74,0.00,,,0.00,Wunderground v.1.15,2013-06-16 08:46:00,
2013-06-16 04:52:00,67.6,59.4,30.05,East,99,2.0,4.0,75,0.00,,,0.00,Wunderground v.1.15,2013-06-16 08:52:00,
2013-06-16 04:57:00,67.8,59.2,30.05,East,99,2.0,4.0,74,0.00,,,0.00,Wunderground v.1.15,2013-06-16 08:57:00,
2013-06-16 05:01:00,67.8,59.2,30.05,East,99,0.0,3.0,74,0.00,,,0.00,Wunderground v.1.15,2013-06-16 09:01:00,
2013-06-16 05:07:00,67.6,59.0,30.05,East,99,0.0,4.0,74,0.00,,,0.00,Wunderground v.1.15,2013-06-16 09:07:00,
2013-06-16 05:12:00,67.6,59.0,30.06,ESE,103,0.0,2.0,74,0.00,,,0.00,Wunderground v.1.15,2013-06-16 09:12:00,
2013-06-16 05:17:00,67.6,59.0,30.06,ESE,103,0.0,3.0,74,0.00,,,0.00,Wunderground v.1.15,2013-06-16 09:17:00,
2013-06-16 05:22:00,67.6,59.0,30.06,South,189,2.0,2.0,74,0.00,,,0.00,Wunderground v.1.15,2013-06-16 09:22:00,
2013-06-16 05:27:00,67.6,59.0,30.06,South,190,0.0,2.0,74,0.00,,,0.00,Wunderground v.1.15,2013-06-16 09:27:00,
2013-06-16 05:32:00,67.6,59.4,30.06,South,190,0.0,1.0,75,0.00,,,0.00,Wunderground v.1.15,2013-06-16 09:32:00,
2013-06-16 05:37:00,67.3,59.1,30.06,South,191,1.0,4.0,75,0.00,,,0.00,Wunderground v.1.15,2013-06-16 09:37:00,
2013-06-16 05:42:00,67.1,58.9,30.06,South,191,0.0,1.0,75,0.00,,,0.00,Wunderground v.1.15,2013-06-16 09:42:00,
2013-06-16 05:47:00,67.3,59.1,30.06,South,191,0.0,3.0,75,0.00,,,0.00,Wunderground v.1.15,2013-06-16 09:47:00,
2013-06-16 05:52:00,67.1,58.9,30.06,South,191,1.0,3.0,75,0.00,,,0.00,Wunderground v.1.15,2013-06-16 09:52:00,
2013-06-16 05:57:00,67.1,59.3,30.07,South,191,0.0,4.0,76,0.00,,,0.00,Wunderground v.1.15,2013-06-16 09:57:00,
2013-06-16 06:02:00,67.3,59.1,30.07,South,191,1.0,4.0,75,0.00,,,0.00,Wunderground v.1.15,2013-06-16 10:02:00,
2013-06-16 06:07:00,67.6,59.0,30.07,SSW,200,1.0,4.0,74,0.00,,,0.00,Wunderground v.1.15,2013-06-16 10:07:00,
2013-06-16 06:12:00,67.8,59.2,30.07,SSW,200,0.0,1.0,74,0.00,,,0.00,Wunderground v.1.15,2013-06-16 10:12:00,
2013-06-16 06:17:00,67.8,59.2,30.07,SSW,200,0.0,1.0,74,0.00,,,0.00,Wunderground v.1.15,2013-06-16 10:17:00,
2013-06-16 06:22:00,67.8,59.6,30.07,SSW,200,0.0,3.0,75,0.00,,,0.00,Wunderground v.1.15,2013-06-16 10:22:00,
2013-06-16 06:27:00,67.8,59.2,30.07,SSW,200,0.0,3.0,74,0.00,,,0.00,Wunderground v.1.15,2013-06-16 10:27:00,
2013-06-16 06:32:00,67.8,59.6,30.07,SSW,200,0.0,3.0,75,0.00,,,0.00,Wunderground v.1.15,2013-06-16 10:32:00,
2013-06-16 06:37:00,67.4,59.6,30.07,SSW,200,0.0,3.0,76,0.00,,,0.00,Wunderground v.1.15,2013-06-16 10:37:00,
2013-06-16 06:42:00,67.3,59.5,30.08,SSW,200,0.0,1.0,76,0.00,,,0.00,Wunderground v.1.15,2013-06-16 10:42:00,
2013-06-16 06:47:00,67.1,59.3,30.08,SSW,200,0.0,1.0,76,0.00,,,0.00,Wunderground v.1.15,2013-06-16 10:47:00,
2013-06-16 06:52:00,67.1,59.3,30.08,SSW,200,0.0,0.0,76,0.00,,,0.00,Wunderground v.1.15,2013-06-16 10:52:00,
2013-06-16 06:57:00,66.9,59.1,30.08,SSW,200,0.0,1.0,76,0.00,,,0.00,Wunderground v.1.15,2013-06-16 10:57:00,
2013-06-16 07:02:00,66.9,59.1,30.08,SSW,200,0.0,1.0,76,0.00,,,0.00,Wunderground v.1.15,2013-06-16 11:02:00,
2013-06-16 07:07:00,66.8,59.4,30.08,SSW,200,0.0,2.0,77,0.00,,,0.00,Wunderground v.1.15,2013-06-16 11:07:00,
2013-06-16 07:12:00,66.6,59.5,30.08,SSW,200,0.0,0.0,78,0.00,,,0.00,Wunderground v.1.15,2013-06-16 11:12:00,
2013-06-16 07:17:00,66.4,59.3,30.08,SSW,200,0.0,1.0,78,0.00,,,0.00,Wunderground v.1.15,2013-06-16 11:17:00,
2013-06-16 07:22:00,66.4,59.3,30.08,SSW,200,0.0,1.0,78,0.00,,,0.00,Wunderground v.1.15,2013-06-16 11:22:00,
2013-06-16 07:27:00,66.4,59.7,30.09,SSW,200,0.0,1.0,79,0.00,,,0.00,Wunderground v.1.15,2013-06-16 11:27:00,
2013-06-16 07:32:00,66.3,59.6,30.09,SSW,200,0.0,1.0,79,0.00,,,0.00,Wunderground v.1.15,2013-06-16 11:32:00,
2013-06-16 07:37:00,66.3,59.6,30.09,SSW,200,0.0,1.0,79,0.00,,,0.00,Wunderground v.1.15,2013-06-16 11:37:00,
2013-06-16 07:42:00,66.3,59.6,30.09,SSW,200,0.0,0.0,79,0.00,,,0.00,Wunderground v.1.15,2013-06-16 11:42:00,
2013-06-16 07:47:00,66.3,60.3,30.09,SSW,200,0.0,1.0,81,0.00,,,0.00,Wunderground v.1.15,2013-06-16 11:47:00,
2013-06-16 07:52:00,66.1,60.1,30.09,SSW,200,0.0,0.0,81,0.00,,,0.00,Wunderground v.1.15,2013-06-16 11:52:00,
2013-06-16 07:57:00,66.0,60.3,30.10,SSW,200,0.0,0.0,82,0.00,,,0.00,Wunderground v.1.15,2013-06-16 11:57:00,
2013-06-16 08:02:00,66.1,60.4,30.10,SSW,200,0.0,0.0,82,0.00,,,0.00,Wunderground v.1.15,2013-06-16 12:02:00,
2013-06-16 08:07:00,66.4,60.7,30.10,SSW,200,0.0,0.0,82,0.00,,,0.00,Wunderground v.1.15,2013-06-16 12:07:00,
2013-06-16 08:12:00,66.9,60.9,30.09,SSW,200,0.0,0.0,81,0.00,,,0.00,Wunderground v.1.15,2013-06-16 12:12:00,
2013-06-16 08:17:00,67.4,60.7,30.09,SSW,200,0.0,0.0,79,0.00,,,0.00,Wunderground v.1.15,2013-06-16 12:17:00,
2013-06-16 08:22:00,68.3,61.2,30.09,SSW,200,0.0,1.0,78,0.00,,,0.00,Wunderground v.1.15,2013-06-16 12:22:00,
2013-06-16 08:27:00,69.3,61.8,30.08,SSW,200,0.0,1.0,77,0.00,,,0.00,Wunderground v.1.15,2013-06-16 12:27:00,
2013-06-16 08:32:00,69.6,61.7,30.08,SSW,200,0.0,1.0,76,0.00,,,0.00,Wunderground v.1.15,2013-06-16 12:32:00,
2013-06-16 08:37:00,70.3,62.7,30.08,SSW,200,0.0,1.0,77,0.00,,,0.00,Wunderground v.1.15,2013-06-16 12:37:00,
2013-06-16 08:42:00,70.1,62.2,30.09,SSW,195,0.0,0.0,76,0.00,,,0.00,Wunderground v.1.15,2013-06-16 12:42:00,
2013-06-16 08:47:00,69.9,62.4,30.09,SSW,195,0.0,4.0,77,0.00,,,0.00,Wunderground v.1.15,2013-06-16 12:47:00,
2013-06-16 08:52:00,69.8,62.3,30.09,SSW,195,0.0,1.0,77,0.00,,,0.00,Wunderground v.1.15,2013-06-16 12:52:00,
2013-06-16 08:57:00,69.8,62.6,30.10,SSW,195,0.0,1.0,78,0.00,,,0.00,Wunderground v.1.15,2013-06-16 12:57:00,
2013-06-16 09:02:00,69.9,63.1,30.10,SSW,195,0.0,0.0,79,0.00,,,0.00,Wunderground v.1.15,2013-06-16 13:02:00,
2013-06-16 09:07:00,70.1,62.9,30.10,SSW,195,0.0,1.0,78,0.00,,,0.00,Wunderground v.1.15,2013-06-16 13:07:00,
2013-06-16 09:12:00,70.3,62.7,30.10,SSW,195,0.0,0.0,77,0.00,,,0.00,Wunderground v.1.15,2013-06-16 13:12:00,
2013-06-16 09:17:00,70.4,62.5,30.10,SSW,195,0.0,1.0,76,0.00,,,0.00,Wunderground v.1.15,2013-06-16 13:17:00,
2013-06-16 09:22:00,70.6,62.7,30.10,SSW,195,0.0,0.0,76,0.00,,,0.00,Wunderground v.1.15,2013-06-16 13:22:00,
2013-06-16 09:27:00,70.8,62.5,30.10,SSW,195,0.0,0.0,75,0.00,,,0.00,Wunderground v.1.15,2013-06-16 13:27:00,
2013-06-16 09:32:00,71.1,62.8,30.10,SSW,195,0.0,1.0,75,0.00,,,0.00,Wunderground v.1.15,2013-06-16 13:32:00,
2013-06-16 09:37:00,71.5,62.4,30.10,ESE,119,0.0,5.0,73,0.00,,,0.00,Wunderground v.1.15,2013-06-16 13:37:00,
2013-06-16 09:42:00,71.8,63.1,30.10,ESE,115,2.0,2.0,74,0.00,,,0.00,Wunderground v.1.15,2013-06-16 13:42:00,
2013-06-16 09:47:00,71.8,62.3,30.10,ESE,115,0.0,2.0,72,0.00,,,0.00,Wunderground v.1.15,2013-06-16 13:47:00,
2013-06-16 09:52:00,71.8,62.3,30.10,ESE,115,0.0,1.0,72,0.00,,,0.00,Wunderground v.1.15,2013-06-16 13:52:00,
2013-06-16 09:57:00,71.8,62.3,30.11,ESE,114,0.0,4.0,72,0.00,,,0.00,Wunderground v.1.15,2013-06-16 13:57:00,
2013-06-16 10:02:00,72.0,62.1,30.11,ESE,114,0.0,0.0,71,0.00,,,0.00,Wunderground v.1.15,2013-06-16 14:02:00,
2013-06-16 10:07:00,72.0,62.1,30.11,ESE,114,0.0,0.0,71,0.00,,,0.00,Wunderground v.1.15,2013-06-16 14:07:00,
2013-06-16 10:12:00,72.0,61.7,30.10,ESE,114,0.0,0.0,70,0.00,,,0.00,Wunderground v.1.15,2013-06-16 14:12:00,
2013-06-16 10:17:00,72.3,62.4,30.10,ESE,114,0.0,1.0,71,0.00,,,0.00,Wunderground v.1.15,2013-06-16 14:17:00,
2013-06-16 10:22:00,72.7,62.3,30.10,ESE,114,0.0,1.0,70,0.00,,,0.00,Wunderground v.1.15,2013-06-16 14:22:00,
2013-06-16 10:27:00,73.0,62.2,30.10,ESE,114,0.0,1.0,69,0.00,,,0.00,Wunderground v.1.15,2013-06-16 14:27:00,
2013-06-16 10:32:00,73.3,61.7,30.10,ESE,108,1.0,4.0,67,0.00,,,0.00,Wunderground v.1.15,2013-06-16 14:32:00,
2013-06-16 10:37:00,73.3,61.3,30.10,ESE,108,0.0,4.0,66,0.00,,,0.00,Wunderground v.1.15,2013-06-16 14:37:00,
2013-06-16 10:42:00,73.5,62.3,30.09,ESE,108,0.0,1.0,68,0.00,,,0.00,Wunderground v.1.15,2013-06-16 14:42:00,
2013-06-16 10:47:00,73.5,62.7,30.09,ESE,108,0.0,1.0,69,0.00,,,0.00,Wunderground v.1.15,2013-06-16 14:47:00,
2013-06-16 10:52:00,73.2,62.4,30.09,SE,137,0.0,1.0,69,0.00,,,0.00,Wunderground v.1.15,2013-06-16 14:52:00,
2013-06-16 10:57:00,73.0,63.0,30.09,SE,137,3.0,4.0,71,0.00,,,0.00,Wunderground v.1.15,2013-06-16 14:57:00,
2013-06-16 11:02:00,72.7,63.1,30.09,SE,137,0.0,2.0,72,0.00,,,0.00,Wunderground v.1.15,2013-06-16 15:02:00,
2013-06-16 11:07:00,72.8,64.4,30.09,SE,137,0.0,3.0,75,0.00,,,0.00,Wunderground v.1.15,2013-06-16 15:07:00,
2013-06-16 11:12:00,73.9,64.7,30.08,SE,127,3.0,5.0,73,0.00,,,0.00,Wunderground v.1.15,2013-06-16 15:12:00,
2013-06-16 11:17:00,74.7,64.7,30.08,ESE,109,0.0,7.0,71,0.00,,,0.00,Wunderground v.1.15,2013-06-16 15:17:00,
2013-06-16 11:22:00,75.6,64.7,30.08,ESE,119,0.0,5.0,69,0.00,,,0.00,Wunderground v.1.15,2013-06-16 15:22:00,
2013-06-16 11:27:00,76.1,64.8,30.08,East,90,0.0,5.0,68,0.00,,,0.00,Wunderground v.1.15,2013-06-16 15:27:00,
2013-06-16 11:32:00,76.7,64.0,30.08,SE,131,0.0,2.0,65,0.00,,,0.00,Wunderground v.1.15,2013-06-16 15:32:00,
2013-06-16 11:37:00,76.8,64.1,30.08,ESE,117,6.0,6.0,65,0.00,,,0.00,Wunderground v.1.15,2013-06-16 15:37:00,
2013-06-16 11:42:00,77.2,65.4,30.07,East,101,5.0,6.0,67,0.00,,,0.00,Wunderground v.1.15,2013-06-16 15:42:00,
2013-06-16 11:47:00,77.0,64.8,30.07,ESE,115,5.0,9.0,66,0.00,,,0.00,Wunderground v.1.15,2013-06-16 15:47:00,
2013-06-16 11:52:00,77.0,64.3,30.07,East,90,4.0,9.0,65,0.00,,,0.00,Wunderground v.1.15,2013-06-16 15:52:00,
2013-06-16 11:57:00,76.8,65.4,30.07,ESE,103,0.0,9.0,68,0.00,,,0.00,Wunderground v.1.15,2013-06-16 15:57:00,
2013-06-16 12:02:00,77.0,64.8,30.07,ESE,104,1.0,7.0,66,0.00,,,0.00,Wunderground v.1.15,2013-06-16 16:02:00,
2013-06-16 12:07:00,77.2,65.0,30.07,ESE,109,4.0,10.0,66,0.00,,,0.00,Wunderground v.1.15,2013-06-16 16:07:00,
2013-06-16 12:12:00,77.9,65.6,30.06,ESE,113,3.0,5.0,66,0.00,,,0.00,Wunderground v.1.15,2013-06-16 16:12:00,
2013-06-16 12:17:00,78.5,65.8,30.06,ESE,110,1.0,5.0,65,0.00,,,0.00,Wunderground v.1.15,2013-06-16 16:17:00,
2013-06-16 12:22:00,78.5,66.2,30.06,East,94,0.0,4.0,66,0.00,,,0.00,Wunderground v.1.15,2013-06-16 16:22:00,
2013-06-16 12:27:00,79.6,65.9,30.06,East,95,0.0,6.0,63,0.00,,,0.00,Wunderground v.1.15,2013-06-16 16:27:00,
2013-06-16 12:32:00,79.9,65.7,30.06,ESE,104,2.0,10.0,62,0.00,,,0.00,Wunderground v.1.15,2013-06-16 16:32:00,
2013-06-16 12:37:00,79.9,66.2,30.06,SE,125,7.0,10.0,63,0.00,,,0.00,Wunderground v.1.15,2013-06-16 16:37:00,
2013-06-16 12:42:00,79.8,65.2,30.06,East,94,0.0,6.0,61,0.00,,,0.00,Wunderground v.1.15,2013-06-16 16:42:00,
2013-06-16 12:47:00,79.6,65.4,30.06,ESE,102,0.0,10.0,62,0.00,,,0.00,Wunderground v.1.15,2013-06-16 16:47:00,
2013-06-16 12:52:00,79.8,67.4,30.06,ESE,108,3.0,4.0,66,0.00,,,0.00,Wunderground v.1.15,2013-06-16 16:52:00,
2013-06-16 12:57:00,79.8,66.1,30.05,ESE,107,4.0,8.0,63,0.00,,,0.00,Wunderground v.1.15,2013-06-16 16:57:00,
2013-06-16 13:02:00,79.9,66.2,30.05,East,91,7.0,10.0,63,0.00,,,0.00,Wunderground v.1.15,2013-06-16 17:02:00,
2013-06-16 13:07:00,79.9,65.7,30.05,East,83,3.0,11.0,62,0.00,,,0.00,Wunderground v.1.15,2013-06-16 17:07:00,
2013-06-16 13:12:00,80.5,67.2,30.04,East,96,4.0,7.0,64,0.00,,,0.00,Wunderground v.1.15,2013-06-16 17:12:00,
2013-06-16 13:17:00,80.9,66.7,30.04,East,101,0.0,11.0,62,0.00,,,0.00,Wunderground v.1.15,2013-06-16 17:17:00,
2013-06-16 13:22:00,80.9,65.2,30.04,East,94,2.0,5.0,59,0.00,,,0.00,Wunderground v.1.15,2013-06-16 17:22:00,
2013-06-16 13:27:00,81.1,66.8,30.04,ESE,115,1.0,10.0,62,0.00,,,0.00,Wunderground v.1.15,2013-06-16 17:27:00,
2013-06-16 13:32:00,81.6,65.9,30.04,ESE,106,8.0,9.0,59,0.00,,,0.00,Wunderground v.1.15,2013-06-16 17:32:00,
2013-06-16 13:37:00,81.1,65.4,30.04,ESE,120,3.0,10.0,59,0.00,,,0.00,Wunderground v.1.15,2013-06-16 17:37:00,
2013-06-16 13:42:00,79.9,66.2,30.04,ESE,103,0.0,6.0,63,0.00,,,0.00,Wunderground v.1.15,2013-06-16 17:42:00,
2013-06-16 13:47:00,79.9,66.2,30.04,ENE,71,6.0,7.0,63,0.00,,,0.00,Wunderground v.1.15,2013-06-16 17:47:00,
2013-06-16 13:52:00,80.3,64.7,30.04,ESE,108,4.0,12.0,59,0.00,,,0.00,Wunderground v.1.15,2013-06-16 17:52:00,
2013-06-16 13:57:00,79.9,66.2,30.03,ESE,110,0.0,12.0,63,0.00,,,0.00,Wunderground v.1.15,2013-06-16 17:57:00,
2013-06-16 14:02:00,79.8,65.6,30.03,ESE,110,0.0,2.0,62,0.00,,,0.00,Wunderground v.1.15,2013-06-16 18:02:00,
2013-06-16 14:07:00,79.0,65.8,30.03,East,89,3.0,11.0,64,0.00,,,0.00,Wunderground v.1.15,2013-06-16 18:07:00,
2013-06-16 14:12:00,78.6,65.4,30.03,East,90,0.0,3.0,64,0.00,,,0.00,Wunderground v.1.15,2013-06-16 18:12:00,
2013-06-16 14:17:00,78.6,66.7,30.03,East,90,0.0,3.0,67,0.00,,,0.00,Wunderground v.1.15,2013-06-16 18:17:00,
2013-06-16 14:22:00,78.6,66.7,30.03,East,90,0.0,0.0,67,0.00,,,0.00,Wunderground v.1.15,2013-06-16 18:22:00,
2013-06-16 14:27:00,78.6,66.3,30.04,East,90,0.0,0.0,66,0.00,,,0.00,Wunderground v.1.15,2013-06-16 18:27:00,
2013-06-16 14:32:00,78.5,66.6,30.04,East,90,0.0,0.0,67,0.00,,,0.00,Wunderground v.1.15,2013-06-16 18:32:00,
2013-06-16 14:37:00,78.5,67.5,30.04,East,90,0.0,0.0,69,0.00,,,0.00,Wunderground v.1.15,2013-06-16 18:37:00,
2013-06-16 14:42:00,78.5,67.5,30.03,East,90,0.0,0.0,69,0.00,,,0.00,Wunderground v.1.15,2013-06-16 18:42:00,
2013-06-16 14:47:00,78.5,67.5,30.03,East,90,0.0,0.0,69,0.00,,,0.00,Wunderground v.1.15,2013-06-16 18:47:00,
2013-06-16 14:52:00,78.6,64.9,30.03,ENE,68,1.0,4.0,63,0.00,,,0.00,Wunderground v.1.15,2013-06-16 18:52:00,
2013-06-16 14:57:00,79.6,65.4,30.03,ESE,111,1.0,7.0,62,0.00,,,0.00,Wunderground v.1.15,2013-06-16 18:57:00,
2013-06-16 15:02:00,79.9,66.2,30.03,ESE,111,0.0,1.0,63,0.00,,,0.00,Wunderground v.1.15,2013-06-16 19:02:00,
2013-06-16 15:07:00,80.9,66.7,30.03,ESE,111,0.0,5.0,62,0.00,,,0.00,Wunderground v.1.15,2013-06-16 19:07:00,
2013-06-16 15:12:00,81.6,65.9,30.01,ESE,117,5.0,6.0,59,0.00,,,0.00,Wunderground v.1.15,2013-06-16 19:12:00,
2013-06-16 15:17:00,81.8,66.1,30.01,East,96,0.0,6.0,59,0.00,,,0.00,Wunderground v.1.15,2013-06-16 19:17:00,
2013-06-16 15:22:00,82.0,65.8,30.01,East,97,0.0,4.0,58,0.00,,,0.00,Wunderground v.1.15,2013-06-16 19:22:00,
2013-06-16 15:27:00,82.2,66.0,30.01,East,96,0.0,4.0,58,0.00,,,0.00,Wunderground v.1.15,2013-06-16 19:27:00,
2013-06-16 15:32:00,82.6,66.3,30.01,East,97,0.0,4.0,58,0.00,,,0.00,Wunderground v.1.15,2013-06-16 19:32:00,
2013-06-16 15:37:00,82.4,66.1,30.01,ESE,116,9.0,9.0,58,0.00,,,0.00,Wunderground v.1.15,2013-06-16 19:37:00,
2013-06-16 15:42:00,81.8,65.6,30.01,ESE,103,1.0,6.0,58,0.00,,,0.00,Wunderground v.1.15,2013-06-16 19:42:00,
2013-06-16 15:47:00,82.0,66.7,30.01,ESE,120,4.0,7.0,60,0.00,,,0.00,Wunderground v.1.15,2013-06-16 19:47:00,
2013-06-16 15:52:00,81.8,65.6,30.01,ESE,118,0.0,4.0,58,0.00,,,0.00,Wunderground v.1.15,2013-06-16 19:52:00,
2013-06-16 15:57:00,81.8,65.6,30.00,ESE,117,3.0,4.0,58,0.00,,,0.00,Wunderground v.1.15,2013-06-16 19:57:00,
2013-06-16 16:02:00,81.2,65.5,30.00,ESE,113,1.0,4.0,59,0.00,,,0.00,Wunderground v.1.15,2013-06-16 20:02:00,
2013-06-16 16:07:00,80.9,65.7,30.00,ESE,103,0.0,9.0,60,0.00,,,0.00,Wunderground v.1.15,2013-06-16 20:07:00,
2013-06-16 16:12:00,80.1,65.9,30.00,East,99,0.0,5.0,62,0.00,,,0.00,Wunderground v.1.15,2013-06-16 20:12:00,
2013-06-16 16:17:00,79.6,65.9,30.00,East,99,0.0,5.0,63,0.00,,,0.00,Wunderground v.1.15,2013-06-16 20:17:00,
2013-06-16 16:22:00,79.2,66.4,30.00,East,99,0.0,1.0,65,0.00,,,0.00,Wunderground v.1.15,2013-06-16 20:22:00,
2013-06-16 16:27:00,79.0,66.2,30.00,East,99,0.0,1.0,65,0.00,,,0.00,Wunderground v.1.15,2013-06-16 20:27:00,
2013-06-16 16:32:00,78.8,66.5,30.00,East,99,0.0,0.0,66,0.00,,,0.00,Wunderground v.1.15,2013-06-16 20:32:00,
2013-06-16 16:37:00,78.6,65.8,30.00,East,99,0.0,5.0,65,0.00,,,0.00,Wunderground v.1.15,2013-06-16 20:37:00,
2013-06-16 16:42:00,78.3,66.4,30.00,East,99,0.0,4.0,67,0.00,,,0.00,Wunderground v.1.15,2013-06-16 20:42:00,
2013-06-16 16:47:00,78.1,66.2,30.00,East,99,0.0,4.0,67,0.00,,,0.00,Wunderground v.1.15,2013-06-16 20:47:00,
2013-06-16 16:52:00,78.1,66.2,30.00,East,99,0.0,1.0,67,0.00,,,0.00,Wunderground v.1.15,2013-06-16 20:52:00,
2013-06-16 16:57:00,77.9,66.9,30.00,East,99,1.0,1.0,69,0.00,,,0.00,Wunderground v.1.15,2013-06-16 20:57:00,
2013-06-16 17:02:00,77.9,66.9,30.00,East,99,0.0,0.0,69,0.00,,,0.00,Wunderground v.1.15,2013-06-16 21:02:00,
2013-06-16 17:07:00,77.9,66.9,30.00,East,99,0.0,1.0,69,0.00,,,0.00,Wunderground v.1.15,2013-06-16 21:07:00,
2013-06-16 17:12:00,78.6,66.3,29.99,East,99,0.0,1.0,66,0.00,,,0.00,Wunderground v.1.15,2013-06-16 21:12:00,
2013-06-16 17:17:00,79.4,66.6,29.99,ESE,110,3.0,7.0,65,0.00,,,0.00,Wunderground v.1.15,2013-06-16 21:17:00,
2013-06-16 17:22:00,79.9,67.1,29.99,ESE,113,0.0,2.0,65,0.00,,,0.00,Wunderground v.1.15,2013-06-16 21:22:00,
2013-06-16 17:27:00,80.1,65.9,29.98,ESE,113,0.0,2.0,62,0.00,,,0.00,Wunderground v.1.15,2013-06-16 21:27:00,
2013-06-16 17:32:00,80.3,67.5,29.98,ESE,113,0.0,1.0,65,0.00,,,0.00,Wunderground v.1.15,2013-06-16 21:32:00,
2013-06-16 17:37:00,80.3,66.1,29.98,ESE,111,0.0,5.0,62,0.00,,,0.00,Wunderground v.1.15,2013-06-16 21:37:00,
2013-06-16 17:42:00,80.3,66.1,29.98,East,99,3.0,4.0,62,0.00,,,0.00,Wunderground v.1.15,2013-06-16 21:42:00,
2013-06-16 17:47:00,80.3,66.1,29.98,East,93,2.0,6.0,62,0.00,,,0.00,Wunderground v.1.15,2013-06-16 21:47:00,
2013-06-16 17:52:00,80.1,66.8,29.98,East,93,3.0,4.0,64,0.00,,,0.00,Wunderground v.1.15,2013-06-16 21:52:00,
2013-06-16 17:57:00,80.1,66.4,29.98,East,93,0.0,4.0,63,0.00,,,0.00,Wunderground v.1.15,2013-06-16 21:57:00,
2013-06-16 18:02:00,80.1,67.3,29.98,East,93,0.0,0.0,65,0.00,,,0.00,Wunderground v.1.15,2013-06-16 22:02:00,
2013-06-16 18:07:00,79.8,67.0,29.98,East,93,0.0,0.0,65,0.00,,,0.00,Wunderground v.1.15,2013-06-16 22:07:00,
2013-06-16 18:12:00,79.6,68.1,29.97,East,93,0.0,1.0,68,0.00,,,0.00,Wunderground v.1.15,2013-06-16 22:12:00,
2013-06-16 18:17:00,79.8,67.9,29.97,East,93,0.0,1.0,67,0.00,,,0.00,Wunderground v.1.15,2013-06-16 22:17:00,
2013-06-16 18:22:00,80.1,67.7,29.97,East,93,0.0,0.0,66,0.00,,,0.00,Wunderground v.1.15,2013-06-16 22:22:00,
2013-06-16 18:27:00,80.1,67.7,29.97,East,93,0.0,0.0,66,0.00,,,0.00,Wunderground v.1.15,2013-06-16 22:27:00,
2013-06-16 18:32:00,79.9,68.0,29.97,East,93,0.0,0.0,67,0.00,,,0.00,Wunderground v.1.15,2013-06-16 22:32:00,
2013-06-16 18:37:00,79.8,68.3,29.97,East,93,0.0,0.0,68,0.00,,,0.00,Wunderground v.1.15,2013-06-16 22:37:00,
2013-06-16 18:42:00,79.6,68.5,29.97,East,93,0.0,0.0,69,0.00,,,0.00,Wunderground v.1.15,2013-06-16 22:42:00,
2013-06-16 18:47:00,79.2,68.6,29.97,East,93,0.0,0.0,70,0.00,,,0.00,Wunderground v.1.15,2013-06-16 22:47:00,
2013-06-16 18:52:00,79.2,69.4,29.97,East,93,0.0,0.0,72,0.00,,,0.00,Wunderground v.1.15,2013-06-16 22:52:00,
2013-06-16 18:57:00,78.8,69.4,29.98,East,93,0.0,0.0,73,0.00,,,0.00,Wunderground v.1.15,2013-06-16 22:57:00,
2013-06-16 19:02:00,78.5,69.1,29.98,East,93,0.0,0.0,73,0.00,,,0.00,Wunderground v.1.15,2013-06-16 23:02:00,
2013-06-16 19:07:00,78.1,68.7,29.98,East,93,0.0,0.0,73,0.00,,,0.00,Wunderground v.1.15,2013-06-16 23:07:00,
2013-06-16 19:12:00,77.7,68.7,29.98,East,93,0.0,0.0,74,0.00,,,0.00,Wunderground v.1.15,2013-06-16 23:12:00,
2013-06-16 19:17:00,77.2,68.7,29.98,East,87,2.0,5.0,75,0.00,,,0.00,Wunderground v.1.15,2013-06-16 23:17:00,
2013-06-16 19:22:00,76.8,67.5,29.98,East,89,0.0,1.0,73,0.00,,,0.00,Wunderground v.1.15,2013-06-16 23:22:00,
2013-06-16 19:27:00,76.5,67.6,29.99,East,89,0.0,1.0,74,0.00,,,0.00,Wunderground v.1.15,2013-06-16 23:27:00,
2013-06-16 19:33:00,76.0,67.1,29.99,East,89,3.0,3.0,74,0.00,,,0.00,Wunderground v.1.15,2013-06-16 23:33:00,
2013-06-16 19:38:00,75.3,66.8,29.99,East,89,0.0,5.0,75,0.00,,,0.00,Wunderground v.1.15,2013-06-16 23:38:00,
2013-06-16 19:43:00,74.9,66.1,30.00,East,89,0.0,1.0,74,0.00,,,0.00,Wunderground v.1.15,2013-06-16 23:43:00,
2013-06-16 19:48:00,74.2,65.8,30.00,East,89,0.0,1.0,75,0.00,,,0.00,Wunderground v.1.15,2013-06-16 23:48:00,
2013-06-16 19:52:00,73.7,65.7,30.00,East,89,0.0,0.0,76,0.00,,,0.00,Wunderground v.1.15,2013-06-16 23:52:00,
2013-06-16 19:58:00,73.3,65.7,30.00,East,89,0.0,1.0,77,0.00,,,0.00,Wunderground v.1.15,2013-06-16 23:58:00,
2013-06-16 20:03:00,73.2,65.9,30.00,East,89,0.0,4.0,78,0.00,,,0.00,Wunderground v.1.15,2013-06-17 00:03:00,
2013-06-16 20:07:00,72.7,66.2,30.00,East,91,0.0,4.0,80,0.00,,,0.00,Wunderground v.1.15,2013-06-17 00:07:00,
2013-06-16 20:12:00,72.5,66.3,30.00,East,91,0.0,1.0,81,0.00,,,0.00,Wunderground v.1.15,2013-06-17 00:12:00,
2013-06-16 20:17:00,72.3,66.5,30.00,East,91,0.0,1.0,82,0.00,,,0.00,Wunderground v.1.15,2013-06-17 00:17:00,
2013-06-16 20:22:00,72.0,66.6,30.00,East,91,0.0,0.0,83,0.00,,,0.00,Wunderground v.1.15,2013-06-17 00:22:00,
2013-06-16 20:27:00,71.6,66.8,30.00,East,91,0.0,1.0,85,0.00,,,0.00,Wunderground v.1.15,2013-06-17 00:27:00,
2013-06-16 20:32:00,71.5,67.1,30.00,East,91,0.0,1.0,86,0.00,,,0.00,Wunderground v.1.15,2013-06-17 00:32:00,
2013-06-16 20:38:00,71.1,66.7,30.00,East,91,2.0,4.0,86,0.00,,,0.00,Wunderground v.1.15,2013-06-17 00:38:00,
2013-06-16 20:43:00,71.1,66.7,30.00,East,91,0.0,1.0,86,0.00,,,0.00,Wunderground v.1.15,2013-06-17 00:43:00,
2013-06-16 20:48:00,70.9,66.2,30.00,East,91,0.0,1.0,85,0.00,,,0.00,Wunderground v.1.15,2013-06-17 00:48:00,
2013-06-16 20:53:00,70.9,66.5,30.00,East,91,0.0,0.0,86,0.00,,,0.00,Wunderground v.1.15,2013-06-17 00:53:00,
2013-06-16 20:58:00,70.9,66.5,30.00,East,91,0.0,0.0,86,0.00,,,0.00,Wunderground v.1.15,2013-06-17 00:58:00,
2013-06-16 21:03:00,70.8,66.7,30.00,East,91,0.0,1.0,87,0.00,,,0.00,Wunderground v.1.15,2013-06-17 01:03:00,
2013-06-16 21:08:00,70.4,66.7,30.00,East,91,3.0,3.0,88,0.00,,,0.00,Wunderground v.1.15,2013-06-17 01:08:00,
2013-06-16 21:13:00,70.1,66.4,30.01,ESE,108,0.0,2.0,88,0.00,,,0.00,Wunderground v.1.15,2013-06-17 01:13:00,
2013-06-16 21:18:00,70.1,66.0,30.01,ESE,108,0.0,2.0,87,0.00,,,0.00,Wunderground v.1.15,2013-06-17 01:18:00,
2013-06-16 21:23:00,70.1,66.0,30.01,ESE,108,0.0,1.0,87,0.00,,,0.00,Wunderground v.1.15,2013-06-17 01:23:00,
2013-06-16 21:28:00,70.1,66.0,30.02,ESE,108,0.0,1.0,87,0.00,,,0.00,Wunderground v.1.15,2013-06-17 01:28:00,
2013-06-16 21:33:00,69.9,65.5,30.02,ESE,108,0.0,0.0,86,0.00,,,0.00,Wunderground v.1.15,2013-06-17 01:33:00,
2013-06-16 21:38:00,69.9,65.2,30.02,ESE,108,0.0,0.0,85,0.00,,,0.00,Wunderground v.1.15,2013-06-17 01:38:00,
2013-06-16 21:43:00,70.1,65.4,30.02,SE,127,0.0,1.0,85,0.00,,,0.00,Wunderground v.1.15,2013-06-17 01:43:00,
2013-06-16 21:48:00,70.1,65.4,30.02,SE,127,0.0,1.0,85,0.00,,,0.00,Wunderground v.1.15,2013-06-17 01:48:00,
2013-06-16 21:53:00,70.1,65.4,30.02,WNW,285,0.0,3.0,85,0.00,,,0.00,Wunderground v.1.15,2013-06-17 01:53:00,
2013-06-16 21:58:00,70.1,65.4,30.02,WNW,285,0.0,3.0,85,0.00,,,0.00,Wunderground v.1.15,2013-06-17 01:58:00,
2013-06-16 22:03:00,70.1,65.7,30.02,WNW,285,0.0,0.0,86,0.00,,,0.00,Wunderground v.1.15,2013-06-17 02:03:00,
2013-06-16 22:08:00,70.1,65.4,30.02,WNW,285,0.0,1.0,85,0.00,,,0.00,Wunderground v.1.15,2013-06-17 02:08:00,
2013-06-16 22:13:00,70.1,65.7,30.02,WNW,285,0.0,3.0,86,0.00,,,0.00,Wunderground v.1.15,2013-06-17 02:13:00,
2013-06-16 22:18:00,70.1,65.7,30.02,WNW,285,0.0,3.0,86,0.00,,,0.00,Wunderground v.1.15,2013-06-17 02:18:00,
2013-06-16 22:23:00,69.9,65.5,30.02,WNW,285,0.0,1.0,86,0.00,,,0.00,Wunderground v.1.15,2013-06-17 02:23:00,
2013-06-16 22:28:00,69.9,65.9,30.02,WNW,285,0.0,1.0,87,0.00,,,0.00,Wunderground v.1.15,2013-06-17 02:28:00,
2013-06-16 22:33:00,69.9,65.9,30.02,WNW,285,0.0,0.0,87,0.00,,,0.00,Wunderground v.1.15,2013-06-17 02:33:00,
2013-06-16 22:38:00,69.9,65.9,30.02,WNW,285,0.0,0.0,87,0.00,,,0.00,Wunderground v.1.15,2013-06-17 02:38:00,
2013-06-16 22:43:00,69.9,65.9,30.01,WNW,285,0.0,0.0,87,0.00,,,0.00,Wunderground v.1.15,2013-06-17 02:43:00,
2013-06-16 22:48:00,69.9,66.2,30.01,WNW,285,0.0,0.0,88,0.00,,,0.00,Wunderground v.1.15,2013-06-17 02:48:00,
2013-06-16 22:53:00,70.1,66.4,30.01,WNW,285,0.0,0.0,88,0.00,,,0.00,Wunderground v.1.15,2013-06-17 02:53:00,
2013-06-16 22:58:00,70.1,66.4,30.01,WNW,285,0.0,0.0,88,0.00,,,0.00,Wunderground v.1.15,2013-06-17 02:58:00,
2013-06-16 23:03:00,70.1,66.4,30.01,WNW,285,0.0,0.0,88,0.00,,,0.00,Wunderground v.1.15,2013-06-17 03:03:00,
2013-06-16 23:08:00,70.1,66.4,30.01,WNW,285,0.0,0.0,88,0.00,,,0.00,Wunderground v.1.15,2013-06-17 03:08:00,
2013-06-16 23:13:00,70.3,66.9,30.01,WNW,285,0.0,3.0,89,0.00,,,0.00,Wunderground v.1.15,2013-06-17 03:13:00,
2013-06-16 23:18:00,70.3,66.9,30.01,WNW,285,0.0,3.0,89,0.00,,,0.00,Wunderground v.1.15,2013-06-17 03:18:00,
2013-06-16 23:23:00,70.1,67.0,30.01,WNW,285,0.0,1.0,90,0.00,,,0.00,Wunderground v.1.15,2013-06-17 03:23:00,
2013-06-16 23:28:00,70.1,67.0,30.01,WNW,285,0.0,1.0,90,0.00,,,0.00,Wunderground v.1.15,2013-06-17 03:28:00,
2013-06-16 23:33:00,69.9,66.8,30.01,WNW,285,0.0,0.0,90,0.00,,,0.00,Wunderground v.1.15,2013-06-17 03:33:00,
2013-06-16 23:38:00,69.9,66.8,30.01,WNW,285,0.0,0.0,90,0.00,,,0.00,Wunderground v.1.15,2013-06-17 03:38:00,
2013-06-16 23:43:00,69.8,67.1,30.00,WNW,285,0.0,0.0,91,0.00,,,0.00,Wunderground v.1.15,2013-06-17 03:43:00,
2013-06-16 23:48:00,69.8,67.1,30.00,WNW,285,0.0,1.0,91,0.00,,,0.00,Wunderground v.1.15,2013-06-17 03:48:00,
2013-06-16 23:53:00,69.8,67.1,30.00,WNW,285,0.0,2.0,91,0.00,,,0.00,Wunderground v.1.15,2013-06-17 03:53:00,
2013-06-16 23:58:00,69.8,67.4,30.01,WNW,285,0.0,2.0,92,0.00,,,0.00,Wunderground v.1.15,2013-06-17 03:58:00,